STARLINK-36048, 66603

Orbit data source: Space-Track

STARLINK-36048, 66603 is a payload satellite owned by SpaceX/Seattle (US) in LEO that was launched on Sat, 22 Nov 2025 UTC via an FALCON 9 launch vehicle from the Air Force Eastern Test Range (AFETR). Payload-class satellites include a variety of spacecraft equipped with specific instruments for various scientific and technological missions. These include communications satellites like Starlink; space stations such as the ISS; scientific satellites like the Hubble; Earth observation satellites from companies like Planet Labs, Umbra, and HawkEye 360; GPS; miniature CubeSats for education and research; and military/defense satellites.

Loading next visibility...
Identifier
66603, 2025-270R
Orbit
LEO
Country
Flag of USUS
Related business
Manufacturer
SpaceX/Seattle
Mission
Operational Commercial Communications
Bus & Motor
STARLINK V2MO, Unknown motor
Mass
575 kg wet, ~530 kg dry
Launch date (UTC)
2025-11-22 (7 months ago)
Launch vehicle
FALCON 9
Launch site
Air Force Eastern Test Range (AFETR)
Object type
Payload
Rocket body
Debris
Shape & HBR
Box + 2 Pan, 17.7 m
Radar Cross Section
36.964 m², Large (>1 m²)

Expand to show TLE details & history
Last TLE update: 11 hours ago

TLE from 11 hours ago
0 STARLINK-36048
1 66603U 25270R   26171.37849373  .00012640  00000-0  46794-3 0  9994
2 66603  42.9985 196.0005 0001366 276.7205  83.3491 15.27587968 33312
Epoch: 2026-06-20T09:05Z
TLE epoch observation values (Epoch: 2026-06-20T09:05:01.858Z)
Latitude
-0.00002°
Longitude
151.14877°
Altitude
482.692 km
Speed
7.626 km/s
True Right ascension
13h 04m 00s
True Declination
0° 00' 00"
Sunlit
Object was in daylight at epoch
Visualization orbit readout
Latitude
Unknown
Longitude
Unknown
Altitude
Unknown
Speed
Unknown
Apparent Right ascension
Unknown
Apparent Declination
Unknown
Sunlit
N/A
Visualization observer readout
Local Sidereal Time
07:18:16
Azimuth
Unknown
Elevation
Unknown
Doppler factor
Unknown
Orbital elements
Apogee altitude
485.908 km
Perigee altitude
484.033 km
Semi-major axis
6,863.108 km
Eccentricity
0.00014
Inclination
42.9985°
RAAN
196.0005°
Arg. of periapsis
276.7205°
True anomaly
83.36465°
Mean anomaly
83.3491°
Eccentric anomaly
83.35687°
Mean motion
3.81735 °/min
Orbital period
94.31 mins
BSTAR
0.00046794
Loading maneuver chart data...
Computing Atmospheric mass density...
Loading historical data...
Loading historical data...
Loading historical data...
Loading historical data...
Loading historical data...
Loading historical data...
Loading historical data...

Documentation

Showing up to 5 results
|